Regional Weather Roundup
Issued by NWS State College, PA

Home | Current Version | Previous Version | Text Only | Print | Product List | Glossary Off
Versions: 1 2 3 4 5 6 7 8 9 10 11 12 13 14 15 16 17 18 19 20 21 22 23 24 25 26 27 28 29 30 31 32 33 34 35 36 37 38 39 40 41 42 43 44 45 46 47 48 49 50

415
ASUS41 KCTP 222210
RWRCTP

REGIONAL WEATHER ROUNDUP
NATIONAL WEATHER SERVICE STATE COLLEGE PA
500 PM EST THU FEB 22 2018

Note: "fair" indicates few or no clouds below 12,000 feet with no
significant weather and/or obstructions to visibility.

* = STATION THAT DOES NOT REPORT PRECIPITATION /E.G. RAIN...SNOW...ETC/
    THUNDER OR FOG.

PAZ002>004-007>009-013>016-020>023-029>032-222300-
WESTERN PENNSYLVANIA

CITY           SKY/WX    TMP DP  RH WIND       PRES   REMARKS
ERIE           CLOUDY    33  30  88 NE13      30.54S FOG
MEADVILLE      FAIR      42  37  82 E9        30.47R
FRANKLIN*      CLOUDY    41  37  86 E5        30.47S
NEW CASTLE     CLOUDY    45  39  79 E9        30.46R
BEAVER COUNTY  CLOUDY    41  37  87 SE7       30.45R
BUTLER*        CLOUDY    41  37  86 E10       30.46R
PITTSBURGH INT CLOUDY    41  38  89 E8        30.45R
PITTSBURGH     CLOUDY    40  36  86 E7        30.44R
INDIANA*       CLOUDY    41  37  87 SE10G22   30.48F
LATROBE        CLOUDY    39  39 100 E9        30.45F
WASHINGTON CO* CLOUDY    40  38  93 E6        30.47R
$$

PAZ004>006-010>012-017>019-024>028-033>037-041-042-045-046-049>053-222300-
CENTRAL PENNSYLVANIA

CITY           SKY/WX    TMP DP  RH WIND       PRES   REMARKS
BRADFORD       CLOUDY    36  33  89 E9        30.47F
DUBOIS         CLOUDY    38  35  89 E9        30.45F
CLEARFIELD     CLOUDY    38  37  97 E10       30.50F
JOHNSTOWN      CLOUDY    35  33  92 E10       30.43F
ALTOONA        CLOUDY    38  36  92 E7        30.52R
STATE COLLEGE  CLOUDY    37  36  93 NE6       30.54S FOG
WILLIAMSPORT   CLOUDY    39  38  96 S3        30.58S
SELINSGROVE    CLOUDY    40  38  93 NE5       30.59F
FT INDIANTOWN  CLOUDY    39  39 100 NE5       30.60R
CAPITAL CITY   CLOUDY    41  38  89 E9        30.60R
HARRISBURG     CLOUDY    41  37  86 NE6       30.59R
YORK           LGT RAIN  40  39  97 NE10      30.57R FOG
$$

PAZ038>040-043-044-047-048-054-055-060>062-067>071-222300-
EASTERN PENNSYLVANIA

CITY           SKY/WX    TMP DP  RH WIND       PRES   REMARKS
SCRANTON       CLOUDY    38  36  92 NE8       30.59R
MOUNT POCONO   CLOUDY    32  32 100 E3        30.53F
ALLENTOWN      LGT RAIN  38  34  85 NE9       30.62R FOG
QUAKERTOWN*    CLOUDY    37  37 100 NE6       30.61R FOG
READING        CLOUDY    39  38  96 NE9       30.60R
LANCASTER      CLOUDY    39  37  92 NE15      30.59R FOG
COATESVILLE    CLOUDY    39  37  93 NE7       30.58R FOG
POTTSTOWN      LGT RAIN  37  37 100 NE9       30.62R FOG
BLUE BELL      CLOUDY    37  37 100 NE6       30.62R
DOYLESTOWN     LGT RAIN  38  36  92 NE6G18    30.60R
WILLOW GROVE   NOT AVBL
NORTH PHILA    LGT RAIN  42  38  85 NE17      30.63R FOG
PHILADELPHIA   LGT RAIN  40  38  93 NE14      30.60R FOG
$$




USA.gov is the U.S. government's official web portal to all federal, state and local government web resources and services.